一网星座-0022星 (ONEWEB-0022 )

导读 | 星芒AI

ONEWEB-0022 是 OneWeb 卫星星座计划中的一颗低轨通信卫星,旨在为全球提供高速互联网服务。该卫星由空中客车公司制造,采用标准化设计,以降低发射和运营成本。它运行在约 1200 公里的近地轨道,与其他 OneWeb 卫星共同构建全球宽带网络。该星座特别关注偏远和农村地区,以弥合数字鸿沟。ONEWEB-0022 的发射和部署是 OneWeb 恢复运营和扩展服务的重要一步。

基本信息
目录编号:
45135
目录名称:
ONEWEB-0022
国际标识:
2020-008E
轨道中心:
EARTH
卫星名称:
一网星座-0022星
卫星全名:
一网星座-0022星 (ONEWEB-0022 )
卫星状态:
在轨 (已飞行2081 天)
发射日期:
2020-02-06 UTC
国别 :
英国 (GB)
星等 :
--
轨道信息
数据来源 国际轨道数据
星历时间: 2025-10-18T06:11:56+0800
8小时前
查看轨道信息
半长轴: 7599.48km
偏心率: 0.0001995
轨道倾角: 87.876°
近地点辐角 93.858°
升交点赤经 84.603°
平近点角 266.277°
近地点: 1219.828km
远地点: 1222.862km
周期: 109.884分钟
每日圈数: 13.104696
详细信息
平衡模式:
三轴稳定
覆盖范围:
全球
运营商:
一网卫星公司
运营商所在国:
英国
制造商(研发单位):
空客防务与航天公司
制造商所在国:
法国大都会
使用方式:
暂无
卫星简介
OneWeb卫星网络由648颗重约125公斤的微型卫星组成,运行在1200公里的轨道上。 每颗卫星都能够提供至少每秒8千兆位的吞吐量,以使用其高吞吐量的Ku频段有效载荷为家庭和移动平台提供互联网接入。该卫星已退役。
2D轨道图
3D轨道图
轨道高度分析图
轨道倾角分析图
轨道综合分析图
查看轨道综合分析图